TimeEDT,TemperatureF,Dew PointF,Humidity,Sea Level PressureIn,VisibilityMPH,Wind Direction,Wind SpeedMPH,Gust SpeedMPH,PrecipitationIn,Events,Conditions,WindDirDegrees,DateUTC
12:54 AM,64.0,53.1,67,29.96,10.0,SSW,9.2,-,N/A,,Clear,210,2014-04-04 04:54:00
1:54 AM,62.1,52.0,70,29.95,10.0,SSW,5.8,-,N/A,,Clear,210,2014-04-04 05:54:00
2:54 AM,62.1,52.0,70,29.94,10.0,SSW,6.9,-,N/A,,Clear,210,2014-04-04 06:54:00
3:54 AM,61.0,52.0,72,29.93,10.0,SSW,4.6,-,N/A,,Clear,200,2014-04-04 07:54:00
4:54 AM,59.0,53.1,81,29.91,10.0,SSW,4.6,-,N/A,,Clear,210,2014-04-04 08:54:00
5:54 AM,61.0,55.9,83,29.92,10.0,SW,6.9,-,N/A,,Clear,220,2014-04-04 09:54:00
6:54 AM,62.1,57.0,84,29.91,10.0,SSW,8.1,-,N/A,,Clear,210,2014-04-04 10:54:00
7:54 AM,64.0,57.9,80,29.93,10.0,SW,8.1,-,N/A,,Clear,220,2014-04-04 11:54:00
8:54 AM,69.1,59.0,70,29.94,10.0,WSW,9.2,-,N/A,,Clear,240,2014-04-04 12:54:00
9:54 AM,75.0,57.9,55,29.93,10.0,WSW,12.7,-,N/A,,Clear,250,2014-04-04 13:54:00
10:54 AM,80.1,59.0,48,29.93,10.0,West,9.2,-,N/A,,Clear,270,2014-04-04 14:54:00
11:54 AM,84.0,46.9,27,29.92,10.0,WSW,13.8,23.0,N/A,,Clear,250,2014-04-04 15:54:00
12:54 PM,87.1,44.1,22,29.91,10.0,West,23.0,29.9,N/A,,Clear,260,2014-04-04 16:54:00
1:54 PM,88.0,39.9,18,29.88,10.0,WSW,11.5,25.3,N/A,,Clear,250,2014-04-04 17:54:00
2:54 PM,89.1,44.1,21,29.86,10.0,WSW,16.1,26.5,N/A,,Clear,240,2014-04-04 18:54:00
3:54 PM,87.1,44.1,22,29.83,10.0,WSW,15.0,27.6,N/A,,Clear,250,2014-04-04 19:54:00
4:54 PM,84.0,57.9,41,29.83,10.0,South,16.1,24.2,N/A,,Clear,190,2014-04-04 20:54:00
5:54 PM,81.0,57.9,45,29.82,10.0,SSW,12.7,24.2,N/A,,Clear,210,2014-04-04 21:54:00
6:54 PM,77.0,57.9,52,29.81,10.0,South,11.5,18.4,N/A,,Clear,190,2014-04-04 22:54:00
7:54 PM,71.1,57.9,63,29.82,10.0,SSW,11.5,20.7,N/A,,Clear,200,2014-04-04 23:54:00
8:54 PM,69.1,57.9,68,29.82,10.0,SSW,12.7,20.7,N/A,,Clear,200,2014-04-05 00:54:00
9:54 PM,68.0,57.9,70,29.82,10.0,SSW,12.7,20.7,N/A,,Clear,200,2014-04-05 01:54:00
10:54 PM,68.0,57.9,70,29.83,10.0,SSW,10.4,-,N/A,,Clear,210,2014-04-05 02:54:00
11:54 PM,68.0,57.0,68,29.85,10.0,SW,10.4,-,N/A,,Clear,220,2014-04-05 03:54:00